sat.trackr.live / text

‹ back to catalog

STARLINK-34723

NORAD 64842 · 2025-152A

PAYLOAD ACTIVE UNKNOWN

§ Identity

Operator
Country
US
Launch date
2025-07-19
Launch site
AFWTR
Launch vehicle
Mass (kg)
RCS (m²)

Purposes: comms

External: N2YO · Heavens-Above · Gunter

§ Orbital elements

Epoch: 2026-09-20T13:13:40.751040Z

Period
93.91 min
Inclination
97.2849°
Eccentricity
0.0001669
Mean motion
15.33448280 rev/d
Perigee alt
464.4 km
Apogee alt
466.7 km
Semi-major
6,843.7 km
B*
3.3261e-4
RAAN
114.1332°
Arg perigee
89.5302°
Mean anomaly
270.6132°
Rev number
6,483

§ Raw data

STARLINK-347231 64842U 25152A   26263.55116610  .00010679  00000+0  33261-3 0  99932 64842  97.2849 114.1332 0001669  89.5302 270.6132 15.33448280 64839

JSON: /api/v1/satellites/64842 · /tle

For live sub-satellite position, see the globe view (requires WebGL).

§ Visibility from observer

Set your observer location to see the next 7 days of passes ≥ 10°. The values pass through the URL so the page stays shareable.

No JS? Fill the form by hand. The geolocation button needs JavaScript.